User: anonymous   Login
Location: Asni�res
(49.1337°N, 2.3555°E)
Time: 00:52:58
(UTC+00:00)
Language:

COSMOS 2540 - Orbit

View from above orbital plane
View from above orbital plane
View from above satellite
View from above satellite

Ground track
Ground track

The orbit data is extracted from the following two-line orbital elements,

1 44517U 19057A   22226.50317916  .00000114  00000-0  13817-3 0  9998
2 44517  99.2550 237.0714 0001643  66.8914  86.7915 13.85881340149578
Epoch (UTC): 14 August 2022 12:04:34
Eccentricity: 0.0001643
inclination: 99.2550°
perigee height: 942 km
apogee height: 944 km
right ascension of ascending node: 237.0714°
argument of perigee: 66.8914°
revolutions per day: 13.85881340
mean anomaly at epoch: 86.7915°
orbit number at epoch: 14957

The dashed part of the orbit path shows where the satellite is in the earth's shadow,  

DLR